Regional Weather Roundup
Issued by NWS

Home | Current Version | Previous Version | Graphics & Text | Print | Product List | Glossary On
Versions: 1 2 3 4 5 6 7 8 9 10 11 12 13 14 15 16 17 18 19 20 21 22 23 24 25 26 27 28 29 30 31 32 33 34 35 36 37 38 39 40 41 42 43 44 45 46 47 48 49 50
000
ASUS43 KLOT 300712
RWRIL

ILLINOIS REGIONAL WEATHER ROUNDUP
NATIONAL WEATHER SERVICE CHICAGO/ROMEOVILLE IL
200 AM CDT FRI SEP 30 2016

NOTE: "FAIR" INDICATES FEW OR NO CLOUDS BELOW 12,000 FEET WITH NO
SIGNIFICANT WEATHER AND/OR OBSTRUCTIONS TO VISIBILITY.

* THESE STATIONS ARE NOT UNDER NWS QUALITY CONTROL. THEY ALSO MAY NOT
  REPORT WEATHER SUCH AS PRECIPITATION OR FOG.

ILZ001-002-007-009-015-016-024-300800-
NORTHWEST ILLINOIS

CITY           SKY/WX    TMP DP  RH WIND       PRES   REMARKS
MOLINE         PTCLDY    60  51  72 N8        30.22S
STERLING*      MOCLDY    59  54  83 N9        30.21S
SAVANNA*       CLOUDY    59  53  80 N9        30.24S
$$

ILZ003-004-008-010-011-017-018-300800-
NORTH CENTRAL ILLINOIS

CITY           SKY/WX    TMP DP  RH WIND       PRES   REMARKS
ROCKFORD       CLOUDY    61  56  83 N13       30.22F
FREEPORT*      MOCLDY    56  53  89 N6        30.24S
ROCHELLE*      CLOUDY    60  57  88 N13       30.20F
DE KALB*       CLOUDY    59  57  93 N9        30.19S
$$

ILZ005-006-012>014-019>023-300800-
NORTHEAST ILLINOIS

CITY           SKY/WX    TMP DP  RH WIND       PRES   REMARKS
CHICAGO-OHARE  LGT RAIN  60  58  92 N10       30.16S FOG
CHICAGO-MIDWAY LGT RAIN  62  57  83 NE15      30.15S FOG
AURORA         CLOUDY    62  57  83 N13       30.17F
LANSING*       RAIN      59  59 100 NE13      30.14F
JOLIET*        CLOUDY    62  59  91 NE9       30.15S
WAUKEGAN       CLOUDY    61  58  90 NE10      30.18F
DUPAGE AIRPORT CLOUDY    60  56  86 NE13      30.17S
KANKAKEE*      HVY RAIN  60  58  95 NE8       30.14S
WHEELING       LGT RAIN  60  58  92 N10       30.19S
MORRIS*        CLOUDY    60  58  91 CALM      30.14S
ROMEOVILLE*    CLOUDY    60  60  99 NE13G20   30.15S
NORTHERLY ISL    N/A     60  57  89 NE15        N/A
$$

LMZ740>746-300800-
SOUTHERN LAKE MICHIGAN

STATION/POSITION SKY/WX   TEMP    WIND        PRES    VSBY  WAVE
                          AIR SEA DIR/SP/G                  HT/PER
                          (F)     (DEG/KT/KT) (MB)    (MI)  (FT/S)
SOUTHERN BUOY              63 68   60/ 21/ 27 1021.4F         5/ 7
WILMETTE HARBOR            61 56   80/ 17/ 23   N/A           8/ 7
HARRISON CRIB              62      50/ 25/ 29   N/A
BURNHAM HARBOR             60      40/ 15/ 23   N/A
CALUMET HARBOR                     30/ 13/ 21 1020.4S
BURNS HARBOR               62      50/ 21/ 25 1020.7F
MICHIGAN CITY              60      20/ 19/ 21   N/A
MICHIGAN CITY 6N           61 64   40/ 17/ 23   N/A           7/ 7
ST. JOSEPH                 57 58   30/ 10/ 14 1021.0          4/ 5
$$

ILZ025>027-034>036-040-047-049-050-058-095>099-300800-
WEST-CENTRAL ILLINOIS

CITY           SKY/WX    TMP DP  RH WIND       PRES   REMARKS
QUINCY         PTCLDY    57  54  89 N7        30.20S
GALESBURG*     CLEAR     56  53  88 NW8       30.20F
MACOMB*        PTCLDY    57  53  85 N6        30.22S
JACKSONVILLE*  MOCLDY    57  56  94 NW7       30.16F
PITTSFIELD*    CLOUDY    62  56  82 N9        30.19S
$$

ILZ028>032-037-038-041>044-048-051>054-059>061-300800-
CENTRAL ILLINOIS

CITY           SKY/WX    TMP DP  RH WIND       PRES   REMARKS
PONTIAC        CLOUDY    61  61 100 N5        30.15S
BLOOMINGTON    CLOUDY    59  58  96 N12       30.14F
DECATUR        CLOUDY    60  57  89 N8        30.12F
PEORIA         MOCLDY    59  58  96 N5        30.16F
LACON*         MOCLDY    58  56  90 N5        30.15F
LINCOLN*       CLOUDY    59  58  98 N7        30.14S FOG
SPRINGFIELD    CLOUDY    59  57  93 N10       30.15S FOG
TAYLORVILLE    CLEAR     55  55  98 N6        30.13S FOG
$$

ILZ033-039-045-046-055>057-062-063-300800-
EAST-CENTRAL ILLINOIS

CITY           SKY/WX    TMP DP  RH WIND       PRES   REMARKS
CHAMPAIGN      LGT RAIN  60  58  92 N8        30.11F FOG
RANTOUL*       DRIZZLE   61  60  96 N9        30.11F
MATTOON        CLOUDY    59  57  93 N10       30.09F
PARIS*         CLOUDY    60  59  98 CALM      30.09S
$$

ILZ079-100>102-300800-
SOUTHWEST ILLINOIS

CITY           SKY/WX    TMP DP  RH WIND       PRES   REMARKS
ALTON          MOCLDY    58  57  94 NW5       30.13F
BELLEVILLE     CLOUDY    60  60  99 VRB6      30.11S
CAHOKIA*       CLOUDY    62  58  86 N8        30.13F
SPARTA*        CLOUDY    59  58  97 NW3       30.12S
$$

ILZ064>066-069>071-074>076-080>082-084>086-088>090-092>094-300800-
SOUTH-CENTRAL ILLINOIS

CITY           SKY/WX    TMP DP  RH WIND       PRES   REMARKS
CARBONDALE     CLOUDY    59  59 100 NW6       30.10S
CAIRO*         CLOUDY    58  57  97 CALM      30.09F
EFFINGHAM*     CLOUDY    60  60 100 NW5       30.11S
MARION         CLOUDY    59  59 100 NW3       30.10S FOG
MT. VERNON     CLOUDY    57  54  88 N3        30.10S
CENTRALIA*     MOCLDY    58  58 100 NW6       30.09S FOG
SALEM*         PTCLDY    59  57  94 CALM      30.10S FOG
METROPOLIS*    CLOUDY    59  58  95 CALM      30.09F
$$

ILZ067-068-072-073-078-083-087-091-300800-
SOUTHEAST ILLINOIS

CITY           SKY/WX    TMP DP  RH WIND       PRES   REMARKS
LAWRENCEVILLE  MOCLDY    56  52  86 NW6       30.06F
FLORA*         MOCLDY    59  58  95 N3        30.09S
FAIRFIELD*       N/A     58  57  97 NW5       30.07F
HARRISBURG*    PTCLDY    55  55 100 CALM      30.09R FOG
ROBINSON*      CLOUDY    57  55  95 N7        30.08S
CARMI*         CLEAR     54  54 100 NW3       30.06F FOG
$$

ABBREVIATIONS USED IN REMARKS
   TC - TEMPERATURE IN CELSIUS
  WCI - WIND CHILL INDEX
   HX - HEAT INDEX
  VSB - VISIBILITY
$$





USA.gov is the U.S. government's official web portal to all federal, state and local government web resources and services.